TimePDT,TemperatureF,Dew PointF,Humidity,Sea Level PressureIn,VisibilityMPH,Wind Direction,Wind SpeedMPH,Gust SpeedMPH,PrecipitationIn,Events,Conditions,WindDirDegrees,DateUTC
12:53 AM,50.0,32.0,50,29.98,10.0,SSE,8.1,-,N/A,,Scattered Clouds,150,2012-09-17 07:53:00
1:53 AM,50.0,32.0,50,29.99,10.0,SSE,9.2,-,N/A,,Partly Cloudy,160,2012-09-17 08:53:00
2:53 AM,46.0,34.0,63,30.01,10.0,SSE,6.9,-,N/A,,Partly Cloudy,150,2012-09-17 09:53:00
3:53 AM,46.0,34.0,63,30.01,10.0,South,5.8,-,N/A,,Scattered Clouds,170,2012-09-17 10:53:00
4:53 AM,44.6,33.8,66,30.27,10.0,South,6.9,-,N/A,,Scattered Clouds,170,2012-09-17 11:53:00
5:53 AM,43.0,32.0,65,30.06,10.0,South,8.1,-,N/A,,Mostly Cloudy,170,2012-09-17 12:53:00
6:53 AM,42.1,34.0,73,30.11,10.0,South,8.1,-,N/A,,Scattered Clouds,170,2012-09-17 13:53:00
7:53 AM,50.0,35.1,57,30.12,10.0,South,8.1,-,N/A,,Clear,170,2012-09-17 14:53:00
8:53 AM,59.0,30.9,35,30.10,10.0,Calm,Calm,-,N/A,,Clear,0,2012-09-17 15:53:00
9:53 AM,64.9,32.0,29,30.08,10.0,North,4.6,-,N/A,,Clear,360,2012-09-17 16:53:00
10:53 AM,70.0,32.0,25,30.07,10.0,Variable,4.6,-,N/A,,Clear,0,2012-09-17 17:53:00
11:53 AM,72.0,26.1,18,30.06,10.0,North,12.7,19.6,N/A,,Clear,360,2012-09-17 18:53:00
12:53 PM,73.9,14.0,10,30.04,10.0,North,11.5,-,N/A,,Clear,10,2012-09-17 19:53:00
1:53 PM,75.0,21.9,14,30.01,10.0,NNE,10.4,16.1,N/A,,Clear,20,2012-09-17 20:53:00
2:53 PM,77.0,19.9,12,30.00,10.0,NNE,8.1,-,N/A,,Clear,20,2012-09-17 21:53:00
3:53 PM,75.9,21.9,13,30.00,10.0,North,5.8,-,N/A,,Clear,10,2012-09-17 22:53:00
4:53 PM,75.9,21.9,13,30.00,10.0,Calm,Calm,-,N/A,,Clear,0,2012-09-17 23:53:00
5:53 PM,75.0,19.9,13,30.01,10.0,NNE,4.6,-,N/A,,Clear,20,2012-09-18 00:53:00
6:53 PM,66.9,21.0,17,30.04,10.0,Calm,Calm,-,N/A,,Clear,0,2012-09-18 01:53:00
7:53 PM,53.1,30.0,41,30.09,10.0,SSW,4.6,-,N/A,,Clear,200,2012-09-18 02:53:00
8:53 PM,51.1,27.0,39,30.08,10.0,SSE,10.4,-,N/A,,Clear,160,2012-09-18 03:53:00
9:53 PM,48.0,28.0,46,30.08,10.0,SSE,9.2,-,N/A,,Clear,160,2012-09-18 04:53:00
10:53 PM,44.1,28.9,55,30.09,10.0,South,12.7,-,N/A,,Clear,170,2012-09-18 05:53:00
11:53 PM,44.1,30.0,58,30.09,10.0,South,10.4,-,N/A,,Clear,170,2012-09-18 06:53:00